DW6169 Weather Reports


Display with metric or nautical units.
time (UTC)temp
F
wind
direction
speed
MPH
gust
MPH
rain 1hr
in
rain 24hr
in
rain mn
in
humidity
%
barometer
mb
20260503021559 82 248 2.0 8.0 0.00 0.00 0.00 67 1014.3
20260503021058 82 246 2.0 10.0 0.00 0.00 0.00 67 1014.3
20260503020600 82 259 2.0 10.0 0.00 0.00 0.00 67 1014.3
20260503020105 82 186 4.0 10.0 0.00 0.00 0.00 66 1014.3
20260503015559 83 309 3.0 10.0 0.00 0.00 0.00 65 1014.4
20260503015104 83 254 3.0 9.0 0.00 0.00 0.00 65 1014.2
20260503014628 83 261 3.0 11.0 0.00 0.00 0.00 64 1014.1
20260503014101 83 221 4.0 11.0 0.00 0.00 0.00 63 1014.2
20260503013601 83 257 4.0 11.0 0.00 0.00 0.00 63 1014.2
20260503013100 83 0 3.0 13.0 0.00 0.00 0.00 62 1014.1
20260503012600 83 240 4.0 13.0 0.00 0.00 0.00 61 1014.0
20260503012101 83 249 2.0 8.0 0.00 0.00 0.00 60 1013.9
20260503011635 83 241 2.0 9.0 0.00 0.00 0.00 59 1013.6
20260503011103 84 282 2.0 9.0 0.00 0.00 0.00 59 1013.6
20260503010558 84 297 2.0 8.0 0.00 0.00 0.00 58 1013.5
20260503010059 84 293 2.0 11.0 0.00 0.00 0.00 58 1013.5
20260503005601 84 250 2.0 11.0 0.00 0.00 0.00 57 1013.5
20260503005058 84 237 5.0 10.0 0.00 0.00 0.00 57 1013.5
20260503004602 85 265 4.0 12.0 0.00 0.00 0.00 56 1013.4
20260503004059 85 243 3.0 12.0 0.00 0.00 0.00 55 1013.4
20260503003558 85 244 3.0 10.0 0.00 0.00 0.00 54 1013.3
20260503003101 85 279 3.0 8.0 0.00 0.00 0.00 54 1013.1
20260503002600 86 261 3.0 8.0 0.00 0.00 0.00 53 1013.2
20260503002100 86 272 3.0 8.0 0.00 0.00 0.00 52 1013.0
20260503001602 86 252 2.0 8.0 0.00 0.00 0.00 51 1012.9
20260503001100 86 263 2.0 8.0 0.00 0.00 0.00 50 1012.9
20260503000559 87 259 2.0 8.0 0.00 0.00 0.00 49 1012.9
20260503000105 87 231 2.0 8.0 0.00 0.00 0.00 48 1012.7
20260502235601 87 250 2.0 10.0 0.00 0.00 0.00 48 1012.6
20260502235059 88 295 3.0 11.0 0.00 0.00 0.00 47 1012.6
20260502234615 88 244 4.0 11.0 0.00 0.00 0.00 46 1012.5
20260502234100 88 265 3.0 9.0 0.00 0.00 0.00 45 1012.5
20260502233558 88 312 2.0 10.0 0.00 0.00 0.00 44 1012.2
20260502233059 89 0 1.0 11.0 0.00 0.00 0.00 44 1012.2
20260502232600 89 230 4.0 11.0 0.00 0.00 0.00 42 1012.0
20260502232100 89 240 3.0 9.0 0.00 0.00 0.00 42 1011.9
20260502231600 89 257 3.0 10.0 0.00 0.00 0.00 41 1011.9
20260502231102 90 266 3.0 11.0 0.00 0.00 0.00 41 1011.9
20260502230559 90 290 3.0 11.0 0.00 0.00 0.00 40 1011.8
20260502230101 90 280 4.0 11.0 0.00 0.00 0.00 40 1011.6
20260502225559 91 284 4.0 10.0 0.00 0.00 0.00 39 1011.6
20260502225100 91 254 1.0 12.0 0.00 0.00 0.00 39 1011.4
20260502224559 92 229 5.0 12.0 0.00 0.00 0.00 38 1011.5
20260502224058 92 240 4.0 13.0 0.00 0.00 0.00 39 1011.5
20260502223600 92 244 3.0 13.0 0.00 0.00 0.00 38 1011.4
20260502223107 92 296 2.0 10.0 0.00 0.00 0.00 39 1011.4
20260502222559 92 255 4.0 11.0 0.00 0.00 0.00 39 1011.4
20260502222059 92 245 5.0 13.0 0.00 0.00 0.00 39 1011.4
20260502221559 93 247 3.0 13.0 0.00 0.00 0.00 39 1011.4
20260502221058 93 221 6.0 13.0 0.00 0.00 0.00 38 1011.3
20260502220558 93 288 6.0 13.0 0.00 0.00 0.00 37 1011.3
20260502220103 93 294 5.0 12.0 0.00 0.00 0.00 38 1011.4
20260502215559 94 221 5.0 13.0 0.00 0.00 0.00 37 1011.2
20260502215058 94 234 3.0 13.0 0.00 0.00 0.00 36 1011.3
20260502214559 94 268 5.0 12.0 0.00 0.00 0.00 36 1011.3
20260502214059 94 277 3.0 12.0 0.00 0.00 0.00 36 1011.1
20260502213558 94 235 4.0 11.0 0.00 0.00 0.00 35 1011.1
20260502213105 95 254 5.0 13.0 0.00 0.00 0.00 35 1011.1
20260502212601 95 264 5.0 13.0 0.00 0.00 0.00 36 1011.0
20260502212059 95 167 5.0 13.0 0.00 0.00 0.00 35 1011.0
20260502211559 96 225 3.0 11.0 0.00 0.00 0.00 36 1010.9
20260502211059 96 321 2.0 11.0 0.00 0.00 0.00 36 1010.9
20260502210558 96 288 4.0 12.0 0.00 0.00 0.00 35 1010.8
20260502210059 96 206 5.0 12.0 0.00 0.00 0.00 36 1010.7
20260502205559 96 273 2.0 10.0 0.00 0.00 0.00 37 1010.8
20260502205100 96 257 4.0 11.0 0.00 0.00 0.00 35 1010.9
20260502204604 96 284 4.0 15.0 0.00 0.00 0.00 35 1010.8
20260502204059 96 0 6.0 15.0 0.00 0.00 0.00 36 1011.0
20260502203559 96 233 5.0 12.0 0.00 0.00 0.00 37 1010.8
20260502203119 96 250 3.0 12.0 0.00 0.00 0.00 39 1010.9
20260502202600 95 227 2.0 15.0 0.00 0.00 0.00 39 1011.0
20260502202101 95 267 4.0 15.0 0.00 0.00 0.00 38 1011.1
20260502201625 95 266 6.0 13.0 0.00 0.00 0.00 38 1011.1
20260502201101 95 277 5.0 13.0 0.00 0.00 0.00 38 1011.2
20260502200558 95 243 5.0 16.0 0.00 0.00 0.00 38 1011.2
20260502200109 95 240 4.0 16.0 0.00 0.00 0.00 40 1011.3
20260502195601 96 229 6.0 16.0 0.00 0.00 0.00 38 1011.4
20260502195058 96 262 4.0 13.0 0.00 0.00 0.00 39 1011.3
20260502194604 96 331 4.0 15.0 0.00 0.00 0.00 37 1011.4
20260502194059 96 238 5.0 15.0 0.00 0.00 0.00 39 1011.4
20260502193600 96 236 2.0 14.0 0.00 0.00 0.00 43 1011.3
20260502193119 95 0 4.0 16.0 0.00 0.00 0.00 42 1011.4
20260502192600 95 261 4.0 16.0 0.00 0.00 0.00 41 1011.6
20260502192059 95 257 5.0 16.0 0.00 0.00 0.00 43 1011.6
20260502191601 95 263 6.0 17.0 0.00 0.00 0.00 42 1011.7
20260502191059 95 257 8.0 17.0 0.00 0.00 0.00 42 1011.6
20260502190600 95 208 3.0 15.0 0.00 0.00 0.00 44 1011.6
20260502190059 95 286 4.0 18.0 0.00 0.00 0.00 43 1011.6
20260502185559 94 285 5.0 18.0 0.00 0.00 0.00 43 1011.8
20260502185100 94 243 6.0 15.0 0.00 0.00 0.00 43 1011.7
20260502184605 95 190 7.0 15.0 0.00 0.00 0.00 43 1011.7
20260502184100 95 238 3.0 11.0 0.00 0.00 0.00 44 1011.7
20260502183559 94 312 4.0 14.0 0.00 0.00 0.00 45 1011.7
20260502183102 94 261 2.0 14.0 0.00 0.00 0.00 46 1011.9
20260502182558 94 230 3.0 17.0 0.00 0.00 0.00 45 1012.0
20260502182059 94 238 7.0 18.0 0.00 0.00 0.00 45 1012.0
20260502181601 93 213 6.0 18.0 0.00 0.00 0.00 45 1012.1
20260502181101 92 229 5.0 18.0 0.00 0.00 0.00 49 1012.2
20260502180601 91 119 3.0 12.0 0.00 0.00 0.00 52 1012.1
20260502180105 91 150 1.0 14.0 0.00 0.00 0.00 57 1012.1
20260502164059 89 243 1.0 6.0 0.00 0.00 0.00 65 1012.5
20260502163556 88 236 1.0 4.0 0.00 0.00 0.00 67 1012.5
20260502163100 88 0 1.0 9.0 0.00 0.00 0.00 67 1012.6
20260502162600 88 0 1.0 9.0 0.00 0.00 0.00 67 1012.7
20260502162100 88 147 1.0 9.0 0.00 0.00 0.00 67 1012.7
20260502161558 88 246 1.0 6.0 0.00 0.00 0.00 68 1012.8
20260502161058 88 138 1.0 7.0 0.00 0.00 0.00 68 1012.8
20260502160557 88 236 1.0 9.0 0.00 0.00 0.00 68 1012.8
20260502152102 89 205 2.0 7.0 0.00 0.00 0.00 65 1013.0
20260502151612 88 192 1.0 12.0 0.00 0.00 0.00 66 1013.1
20260502151058 88 181 1.0 12.0 0.00 0.00 0.00 65 1013.1
20260502150601 88 311 3.0 12.0 0.00 0.00 0.00 65 1013.1
20260502140103 85 321 1.0 5.0 0.00 0.00 0.00 72 1012.7
20260502130602 81 225 0.0 6.0 0.00 0.00 0.00 78 1012.7
20260502123559 79 246 0.0 3.0 0.00 0.00 0.00 85 1012.9
20260502123101 78 0 0.0 3.0 0.00 0.00 0.00 85 1012.9
20260502122604 78 0 0.0 0.0 0.00 0.00 0.00 85 1012.8
20260502122101 78 0 0.0 0.0 0.00 0.00 0.00 86 1012.8
20260502121601 77 0 0.0 2.0 0.00 0.00 0.00 86 1012.8
20260502121103 77 0 0.0 2.0 0.00 0.00 0.00 86 1012.8
20260502120600 77 0 0.0 0.0 0.00 0.00 0.00 86 1012.8
20260502115558 76 0 0.0 0.0 0.00 0.00 0.00 86 1012.7
20260502115101 75 0 0.0 0.0 0.00 0.00 0.00 86 1012.8
20260502114602 75 0 0.0 0.0 0.00 0.00 0.00 86 1012.8
20260502114100 75 0 0.0 0.0 0.00 0.00 0.00 85 1012.7
20260502113600 75 0 0.0 0.0 0.00 0.00 0.00 85 1012.8
20260502113125 74 0 0.0 0.0 0.00 0.00 0.00 85 1012.9
20260502112559 74 0 0.0 0.0 0.00 0.00 0.00 85 1013.0
20260502112101 74 0 0.0 0.0 0.00 0.00 0.00 85 1013.0
20260502111602 74 0 0.0 0.0 0.00 0.00 0.00 84 1012.9
20260502111059 74 0 0.0 0.0 0.00 0.00 0.00 84 1012.9
20260502110559 74 0 0.0 0.0 0.00 0.00 0.00 84 1013.0
20260502105559 74 0 0.0 0.0 0.00 0.00 0.00 84 1012.8
20260502105100 74 0 0.0 0.0 0.00 0.00 0.00 84 1012.9
20260502104610 74 0 0.0 0.0 0.00 0.00 0.00 85 1012.9
20260502104058 74 0 0.0 0.0 0.00 0.00 0.00 85 1012.7
20260502103601 74 0 0.0 0.0 0.00 0.00 0.00 85 1012.7
20260502103100 74 0 0.0 0.0 0.00 0.00 0.00 85 1012.7
20260502102558 74 0 0.0 0.0 0.00 0.00 0.00 85 1012.7
20260502102057 74 0 0.0 0.0 0.00 0.00 0.00 85 1012.7
20260502101611 74 0 0.0 0.0 0.00 0.00 0.00 85 1012.7
20260502101058 74 0 0.0 0.0 0.00 0.00 0.00 85 1012.7
20260502100557 74 0 0.0 0.0 0.00 0.00 0.00 85 1012.8
20260502091059 75 0 0.0 0.0 0.00 0.00 0.00 85 1012.7
20260502090556 75 0 0.0 0.0 0.00 0.00 0.00 85 1012.7
20260502090107 75 0 0.0 0.0 0.00 0.00 0.00 85 1012.5
20260502071058 75 0 0.0 0.0 0.00 0.00 0.00 83 1012.5
20260502070555 75 0 0.0 0.0 0.00 0.00 0.00 83 1012.5
20260502070115 75 0 0.0 0.0 0.00 0.00 0.00 83 1012.6
20260502065557 75 0 0.0 0.0 0.00 0.00 0.00 83 1012.7
20260502065056 75 0 0.0 0.0 0.00 0.00 0.00 83 1012.6
20260502064557 75 0 0.0 0.0 0.00 0.00 0.00 83 1012.6
20260502064056 76 0 0.0 0.0 0.00 0.00 0.00 83 1012.7
20260502063556 76 0 0.0 0.0 0.00 0.00 0.00 83 1012.6
20260502063113 76 0 0.0 0.0 0.00 0.00 0.00 83 1012.7
20260502062601 76 0 0.0 0.0 0.00 0.00 0.00 83 1012.8
20260502062056 76 0 0.0 0.0 0.00 0.00 0.00 83 1012.9
20260502061559 76 0 0.0 0.0 0.00 0.00 0.00 83 1012.8
20260502061055 76 0 0.0 0.0 0.00 0.00 0.00 82 1012.8
20260502060558 76 0 0.0 0.0 0.00 0.00 0.00 82 1012.8
20260502060058 76 0 0.0 0.0 0.00 0.00 0.00 82 1012.8
20260502055559 76 0 0.0 0.0 0.00 0.00 0.00 82 1012.7
20260502055059 76 0 0.0 0.0 0.00 0.00 0.00 82 1012.8
20260502054609 76 0 0.0 1.0 0.00 0.00 0.00 82 1012.7
20260502054059 76 0 0.0 1.0 0.00 0.00 0.00 82 1012.7
20260502053556 76 0 0.0 1.0 0.00 0.00 0.00 81 1012.7
20260502053059 76 0 0.0 1.0 0.00 0.00 0.00 81 1012.7
20260502052556 77 0 0.0 1.0 0.00 0.00 0.00 81 1012.8
20260502052057 77 0 0.0 0.0 0.00 0.00 0.00 81 1012.9
20260502051557 77 0 0.0 0.0 0.00 0.00 0.00 81 1012.9
20260502051056 77 0 0.0 0.0 0.00 0.00 0.00 81 1013.0
20260502050557 77 0 0.0 0.0 0.00 0.00 0.00 81 1013.0
20260502050057 77 0 0.0 1.0 0.00 0.00 0.00 81 1013.2
20260502045601 77 0 0.0 1.0 0.00 0.00 0.00 81 1013.1
20260502045059 77 0 0.0 3.0 0.00 0.00 0.00 81 1013.2
20260502044556 77 0 0.0 3.0 0.00 0.00 0.00 81 1013.2
20260502044058 77 0 0.0 3.0 0.00 0.00 0.00 81 1013.3
20260502043556 77 0 0.0 0.0 0.00 0.00 0.00 81 1013.3
20260502043111 78 0 0.0 0.0 0.00 0.00 0.00 81 1013.4
20260502042600 78 0 0.0 1.0 0.00 0.00 0.00 81 1013.4
20260502042058 78 0 0.0 1.0 0.00 0.00 0.00 81 1013.5
20260502041624 78 115 0.0 0.0 0.00 0.00 0.00 81 1013.5
20260502041101 78 0 0.0 0.0 0.00 0.00 0.00 81 1013.6
20260502040559 78 0 0.0 0.0 0.00 0.00 0.00 81 1013.7
20260502040104 78 0 0.0 0.0 0.00 0.00 0.00 80 1013.8
20260502035559 78 0 0.0 0.0 0.00 0.00 0.00 80 1013.7
20260502035101 78 0 0.0 0.0 0.00 0.00 0.00 80 1013.7
20260502034601 78 0 0.0 0.0 0.00 0.00 0.00 80 1013.6
20260502034101 78 0 0.0 0.0 0.00 0.00 0.00 80 1013.6
20260502033601 78 0 0.0 0.0 0.00 0.00 0.00 80 1013.7
20260502033107 78 0 0.0 0.0 0.00 0.00 0.00 80 1013.6
20260502032559 78 0 0.0 0.0 0.00 0.00 0.00 80 1013.6
20260502032058 78 0 0.0 0.0 0.00 0.00 0.00 80 1013.7
20260502031602 78 0 0.0 1.0 0.00 0.00 0.00 79 1013.6
20260502031102 78 0 0.0 1.0 0.00 0.00 0.00 79 1013.6
20260502030600 78 0 0.0 1.0 0.00 0.00 0.00 79 1013.6
20260502030119 78 0 0.0 1.0 0.00 0.00 0.00 79 1013.6
20260502025559 78 0 0.0 0.0 0.00 0.00 0.00 79 1013.6
20260502025059 78 0 0.0 2.0 0.00 0.00 0.00 78 1013.6
20260502024606 78 0 0.0 2.0 0.00 0.00 0.00 78 1013.6
20260502024059 79 0 0.0 2.0 0.00 0.00 0.00 78 1013.5
20260502023559 79 0 0.0 3.0 0.00 0.00 0.00 78 1013.3
20260502023137 79 0 0.0 3.0 0.00 0.00 0.00 78 1013.2
20260502022603 79 0 0.0 4.0 0.00 0.00 0.00 78 1013.2
20260502022059 79 282 0.0 4.0 0.00 0.00 0.00 78 1013.1